Location: Cork
(51.8990°N, 8.4960°W)
Time: 03:31:57
(UTC+00:00)

Iridium 66 - Visible Passes

Search period start: 18 February 2018 00:00
Search period end: 28 February 2018 00:00
Orbit: 776 x 779 km, 86.4° (Epoch: 17 February)

Date Brightness Start Highest point End Pass type
(mag) Time Alt. Az. Time Alt. Az. Time Alt. Az.
23 Feb 9.0 23:27:25 10° N 23:27:25 10° N 23:27:26 10° N visible
24 Feb 8.8 22:53:43 12° N 22:53:43 12° N 22:54:05 10° N visible
25 Feb 8.6 22:20:00 13° N 22:20:00 13° N 22:20:34 10° N visible
26 Feb 8.4 21:46:16 13° NNE 21:46:16 13° NNE 21:46:54 10° NNE visible
26 Feb 8.9 23:26:42 13° NNW 23:26:42 13° NNW 23:27:19 10° NNW visible
27 Feb 8.3 21:12:30 13° NNE 21:12:30 13° NNE 21:13:02 10° NNE visible
27 Feb 8.5 22:52:57 16° NNW 22:52:57 16° NNW 22:54:05 10° N visible
